Regional Weather Roundup
Issued by NWS Sioux Falls, SD

Home | Current Version | Previous Version | Text Only | Print | Product List | Glossary Off
Versions: 1 2 3 4 5 6 7 8 9 10 11 12 13 14 15 16 17 18 19 20 21 22 23 24 25 26 27 28 29 30 31 32 33 34 35 36 37 38 39 40 41 42 43 44 45 46 47 48 49 50

000
ASUS43 KFSD 050510
RWRFSD

WEATHER ROUNDUP FOR SE SOUTH DAKOTA/SW MINNESOTA/NW IOWA
NATIONAL WEATHER SERVICE SIOUX FALLS SD
1200 AM CDT WED AUG 05 2015

NOTE: "FAIR" INDICATES FEW OR NO CLOUDS BELOW 12,000 FEET WITH NO
SIGNIFICANT WEATHER AND OR OBSTRUCTIONS TO VISIBILITY.


SDZ038>040-050-052>070-050600-
SOUTHEAST SOUTH DAKOTA

CITY           SKY/WX    TMP DP  RH WIND       PRES   REMARKS
BROOKINGS      MOCLDY    64  57  77 E7        30.06S
CHAMBERLAIN    MOCLDY    66  63  90 SE7       30.00S
HURON          MOCLDY     1  32 100 SE7       30.00R WCI -12
MADISON        FAIR      63  63 100 E7        30.04S
MITCHELL       MOCLDY    67  64  90 SE6       30.01R
SIOUX FALLS    CLOUDY    67  60  78 E7        30.02S
WINNER         FAIR      68  64  87 SE3       30.00S
YANKTON        CLOUDY    66  64  94 SE5       29.99S
$$

MNZ071-072-080-081-089-090-097-098-050600-
SOUTHWEST MINNESOTA

CITY           SKY/WX    TMP DP  RH WIND       PRES   REMARKS
FAIRMONT       PTCLDY    59  52  77 CALM      30.04R
JACKSON        MOCLDY    59  55  88 CALM      30.05S
LUVERNE        MOCLDY    64  59  82 CALM      30.04S
MARSHALL       MOCLDY    59  54  82 CALM      30.05S
MONTEVIDEO     PTCLDY    61  52  72 CALM      30.05R
PIPESTONE      MOCLDY    63  57  82 E3        30.05R
REDWOOD FALLS  PTCLDY    63  56  78 CALM      30.03S
TRACY          MOCLDY    66  55  68 S5        30.04S
WINDOM         MOCLDY    61  54  77 CALM      30.05S
WORTHINGTON    MOCLDY    63  55  77 SE3       30.04F
$$

IAZ001>003-012>014-020>022-031-032-NEZ013-014-SDZ071-050600-
NORTHWEST IOWA

CITY           SKY/WX    TMP DP  RH WIND       PRES   REMARKS
CHEROKEE       CLOUDY    65  64  94 E7        30.02R
DENISON        CLOUDY    68  63  83 E10G17    29.98F
ESTHERVILLE    MOCLDY    58  55  90 E3        30.03S
LE MARS        CLOUDY    70  64  83 CALM      30.02R
ORANGE CITY    CLOUDY    64  63  94 E5        30.02S
SHELDON        MOCLDY    64  61  88 E6        30.02S
SIOUX CITY     CLOUDY    68  62  81 SE9       30.00S
SPENCER        MOCLDY    62  57  83 E3        30.03F
STORM LAKE     CLOUDY    66  63  88 E6        30.04R
$$

ABBREVIATIONS USED IN REMARKS
   TC - TEMPERATURE IN CELSIUS
  WCI - WIND CHILL INDEX
   HX - HEAT INDEX
  VSB - VISIBILITY




USA.gov is the U.S. government's official web portal to all federal, state and local government web resources and services.